This demonstration page uses our WeatherBlox Daily Observations layout. Learn more.

38.88101, -77.10428

Hourly Observations for January 21, 2017

Temp ( °F °C ) Dew Point ( °F °C ) Humidity (%) Winds ( mph kmh ) Pressure ( in mb ) Visibility ( mi km ) Precip ( " mm )
12:52 am 00:52 Cloudy with Light Drizzle 47 8.3 47 8.3 100 100 S 6 9 29.91 1013 3 4.82802 0 0.0254
1:31 am 01:31 Cloudy with Light Drizzle 47 8.3 47 8.3 100 100 S 6 9 29.91 1013 2.5 4.02335 0 0.0254
1:52 am 01:52 Cloudy with Light Drizzle 47 8.3 47 8.3 100 100 SSW 5 7 29.92 1013 2.5 4.02335 0 0.0254
2:01 am 02:01 Cloudy with Light Drizzle 47 8.3 47 8.3 100 100 SSW 6 9 29.91 1013 3 4.82802 0 0.0254
2:52 am 02:52 Cloudy with Light Drizzle 48 8.9 47 8.3 96 96 SW 7 11 29.93 1014 6 9.65604 0 0.0254
3:52 am 03:52 Cloudy 48 8.9 48 8.9 100 100 SSW 6 9 29.92 1013 7 11.26538 0 0.0254
4:14 am 04:14 Cloudy with Mist and Fog 46 8 46 8 100 100 S 5 7 29.91 1013 4 6.43736 0 0
4:52 am 04:52 Cloudy with Mist and Fog 48 8.9 47 8.3 96 96 WSW 5 7 29.91 1013 5 8.0467 0 0
5:52 am 05:52 Cloudy with Mist and Fog 48 8.9 48 8.9 100 100 SSW 5 7 29.92 1013 6 9.65604 0 0
6:14 am 06:14 Cloudy with Light Drizzle 48 9 48 9 100 100 WSW 3 6 29.91 1013 7 11.26538 0 0
6:52 am 06:52 Cloudy with Light Drizzle 48 8.9 48 8.9 100 100 SSE 3 6 29.92 1013 5 8.0467 0 0.0254
7:48 am 07:48 Cloudy with Mist and Fog 48 9 46 8 94 94 S 5 7 29.91 1013 6 9.65604 0 0.0254
7:52 am 07:52 Cloudy with Mist and Fog 48 8.9 47 8.3 96 96 SSE 5 7 29.91 1013 6 9.65604 0 0.0254
8:07 am 08:07 Cloudy with Mist and Fog 47 8.3 47 8.3 100 100 S 3 6 29.91 1013 4 6.43736 0 0
8:52 am 08:52 Cloudy with Mist and Fog 48 8.9 47 8.3 96 96 S 6 9 29.91 1013 5 8.0467 0 0
9:52 am 09:52 Cloudy with Mist and Fog 48 8.9 48 8.9 100 100 S 8 13 29.93 1013 6 9.65604 0 0
10:52 am 10:52 Cloudy 49 9.4 48 8.9 97 97 S 7 11 29.91 1013 10 16.0934 0 0
11:52 am 11:52 Cloudy 49 9.4 48 8.9 97 97 S 7 11 29.89 1012 8 12.87472 0 0.0254
12:52 pm 12:52 Cloudy 49 9.4 48 8.9 97 97 SSE 6 9 29.86 1011 10 16.0934 0 0
1:52 pm 13:52 Cloudy 50 10 48 8.9 93 93 SSW 6 9 29.85 1011 10 16.0934 0 0
2:52 pm 14:52 Cloudy 49 9.4 48 8.9 97 97 S 6 9 29.84 1010 10 16.0934 0 0
3:52 pm 15:52 Cloudy 49 9.4 48 8.9 97 97 S 7 11 29.83 1010 10 16.0934 0 0
4:07 pm 16:07 Cloudy 49 9.4 48 8.9 97 97 S 6 9 29.83 1010 9 14.48406 0 0
4:26 pm 16:26 Cloudy 50 10 48 9 94 94 S 6 9 29.83 1010 10 16.0934 0 0
4:52 pm 16:52 Cloudy 50 10 49 9.4 96 96 S 6 9 29.83 1010 10 16.0934 0 0
5:23 pm 17:23 Cloudy 50 10 48 8.9 93 93 S 6 9 29.83 1010 10 16.0934 0 0
5:52 pm 17:52 Cloudy 50 10 48 9 94 94 S 5 7 29.83 1010 10 16.0934 0 0
6:03 pm 18:03 Cloudy 50 10 48 9 94 94 SSE 5 7 29.83 1010 10 16.0934 0 0
6:14 pm 18:14 Cloudy 48 9 46 8 94 94 SSE 3 6 29.83 1010 10 16.0934 0 0
6:31 pm 18:31 Cloudy with Mist and Fog 49 9.4 48 8.9 97 97 SSE 5 7 29.8 1009 4 6.43736 0 0
6:43 pm 18:43 Cloudy with Mist and Fog 49 9.4 48 8.9 97 97 SSE 3 6 29.8 1009 3 4.82802 0 0
6:52 pm 18:52 Cloudy with Mist and Fog 49 9.4 48 8.9 97 97 SE 3 6 29.81 1010 1.5 2.41401 0 0
7:08 pm 19:08 Cloudy with Mist and Fog 49 9.4 48 8.9 97 97 ESE 3 6 29.8 1009 1 1.60934 0 0
7:30 pm 19:30 Cloudy with Mist and Fog 48 9 48 9 100 100 ENE 3 6 29.8 1009 1.5 2.41401 0 0
7:52 pm 19:52 Cloudy with Mist and Fog 49 9.4 48 8.9 97 97 ENE 3 6 29.8 1009 3 4.82802 0 0
8:06 pm 20:06 Cloudy with Mist and Fog 48 8.9 48 8.9 100 100 Calm 29.8 1009 5 8.0467 0 0
8:49 pm 20:49 Cloudy with Mist and Fog 48 9 48 9 100 100 Calm 29.8 1009 2 3.21868 0 0
8:52 pm 20:52 Cloudy with Mist and Fog 49 9.4 49 9.4 100 100 Calm 29.81 1010 2 3.21868 0 0
9:03 pm 21:03 Cloudy with Mist and Fog 48 9 48 9 100 100 NNE 5 7 29.8 1009 1 1.60934 0 0
9:48 pm 21:48 Cloudy with Mist and Fog 48 9 48 9 100 100 E 5 7 29.8 1009 5 8.0467 0 0
9:52 pm 21:52 Cloudy with Mist and Fog 48 8.9 48 8.9 100 100 E 3 6 29.8 1009 5 8.0467 0 0
10:00 pm 22:00 Cloudy with Mist and Fog 48 9 48 9 100 100 ENE 5 7 29.8 1009 5 8.0467 0 0
10:34 pm 22:34 Cloudy with Mist and Fog 48 9 48 9 100 100 NNE 6 9 29.77 1008 4 6.43736 0 0
10:52 pm 22:52 Cloudy 48 8.9 48 8.9 100 100 NE 6 9 29.78 1009 8 12.87472 0 0
11:52 pm 23:52 Cloudy with Mist and Fog 48 8.9 48 8.9 100 100 NNE 6 9 29.76 1008 5 8.0467 0 0

Powered by AerisWeather